Voltar ao catálogo

STARLINK-34744

AtivoComunicaçõesSSO
NORAD 64952·PAYLOAD·🇺🇸 United States

Lançado Jul 26, 2025 de Vandenberg Space Force Base

Loading…

Próximas Passagens (próximas 24 horas)

TLE

AtualizadoSource: CelesTrak SupGP

Época: Sep 15, 2026, 03:47 UTC

1 64952C 25158W   26258.15812500 -.00025116  00000+0 -77890-3 0  2580
2 64952  97.2844 116.5570 0001695 106.3624  99.8329 15.33482221    12

Acompanhe STARLINK-34744 em tempo real com AllMySat

Download on the App Store